Regional Weather Roundup
Issued by NWS New Orleans/Baton Rouge, LA

Home | Current Version | Previous Version | Graphics & Text | Print | Product List | Glossary On
Versions: 1 2 3 4 5 6 7 8 9 10 11 12 13 14 15 16 17 18 19 20 21 22 23 24 25 26 27 28 29 30 31 32 33 34 35 36 37 38 39 40 41 42 43 44 45 46 47 48 49 50
000
ASUS44 KLIX 152201
RWRLIX
NEW ORLEANS REGIONAL WEATHER ROUNDUP
NATIONAL WEATHER SERVICE NEW ORLEANS LA
500 PM CDT MON SEP 15 2014

NOTE: "FAIR" INDICATES FEW OR NO CLOUDS BELOW 12,000 FEET WITH NO
      SIGNIFICANT WEATHER AND/OR OBSTRUCTIONS TO VISIBILITY.
      SKY/WX - SKY CONDITION AND SIGNIFICANT WEATHER.
      TMP - AIR TEMPERATURE.     DP    - DEWPOINT TEMPERATURE.
      RH  - RELATIVE HUMIDITY.   PRES  - PRESSURE.
      HI  - HEAT INDEX.          WCI   - WIND CHILL INDEX.

*  THESE STATIONS ARE NOT NWS OR FAA STATIONS AND ARE NOT UNDER
   NWS QUALITY CONTROL.

LAZ038-040-048-061>063-065>067-069-152300-
SOUTHEAST LOUISIANA

CITY           SKY/WX    TMP DP  RH WIND       PRES   REMARKS
N.O. AUDUBON     N/A     80  76  87 MISG        N/A
N.O. INTL ARPT CLOUDY    78  74  87 S8        30.05S
N.O. LAKEFRONT CLOUDY    82  75  79 S9        30.05S
N.O. DOWNTOWN*   N/A     82  72  69 SW5       30.06S
SLIDELL        PTSUNNY   82  74  76 SE6       30.04S
BATON ROUGE    PTSUNNY   92  72  51 N5        30.03S HX  99
BOOTHVILLE     PTSUNNY   83  76  79 S6        30.06S
BELLE CHASSE   CLOUDY    81  73  76 CALM      30.05S
BOGALUSA*        N/A     89  74  62 SW7       30.05S HX  98
GALLIANO*      NOT AVBL
NEW ROADS*       N/A     91  73  56 E5        30.03S HX  99
GONZALES*      TSTM      78  78 100 S6        30.05R
HAMMOND*       NOT AVBL
HOUMA*         MOSUNNY   88  72  58 S6        30.04F
PORT FOURCHON* PTCLDY    86  75  70 S10       30.08S HX  95

$$

MSZ070-080>082-152300-
SOUTHERN MISSISSIPPI

CITY           SKY/WX    TMP DP  RH WIND       PRES   REMARKS
MCCOMB         MOSUNNY   91  67  44 VRB3      30.04F
GULFPORT       PTSUNNY   87  75  67 SE9       30.04S HX  96
BILOXI         CLOUDY    87  76  68 S6        30.04F HX  97
PASCAGOULA     PTSUNNY   85  77  77 CALM      30.05S HX  95

$$

COASTAL OBSERVATIONS
LAKE AND NEARSHORE STATIONS

STATION/POSITION TIME  TEMP    WIND        PRES    WAVE
                       AIR SEA DIR/SP/G            HT/PER
                 (UTC) (F)     (DEG/KT/KT) (MB)    (FT/S)
PASCAGOULA       2100   87     150/  5/  7 1017.0
WAVELAND YACHT   2100   85     160/  7/  9 1017.0
GRAND ISLE       2100   85 87  170/  5/  7 1018.2
SOUTHWEST PASS   2100   89 92  210/  6/  9 1018.0
NEW CANAL        2100   81 83  210/  8/ 11 1018.2
SHELL BEACH      2100   82 80  120/  5/  7 1017.3

OFFSHORE STATIONS

STATION/POSITION TIME  TEMP    WIND        PRES    WAVE
                       AIR SEA DIR/SP/G            HT/PER
                 (UTC) (F)     (DEG/KT/KT) (MB)    (FT/S)
64 S DAUPHIN ISL 2107   82 86  230/ 10/ 12 1018.2    3/ 6

$$




USA.gov is the U.S. government's official web portal to all federal, state and local government web resources and services.